TIME,DELAY(SENSOR),PRES,OXYGEN,RAWTEMP,T(OPTODE),TCPHASE,FLUOR,BETA(BETA700),BETA(BETA412),BETA(BETA440),CDOM,C(CSC),ED(ED411.90),ED(ED443.80),ED(ED489.40),ED(ED554.70),LU(LU412.20),LU(LU443.80),LU(LU489.40),LU(LU555.00),COMP,TILTX,TILTY,CHECK
1361831460,5806,862.8900146484375000,183.3441009521484400,482.8342895507812500,8.0610818862915040,38.6739616394043000,79,398,96,77,80,11729,2146961435,2147518390,2147292050,2147514212,2147089088,2146930240,2147709568,2147118345,2880,-1,9,53998
1361835056,5806,960.0700073242188000,233.2117004394531200,543.6896972656250000,6.1673560142517090,36.7801017761230500,79,406,97,79,80,11724,2146961334,2147514752,2147299346,2147523648,2147089234,2146918985,2147726345,2147119012,3241,0,8,48940
1361838656,5805,986.4600219726562000,248.3632049560547000,553.8322143554688000,5.8491001129150390,36.1904106140136700,79,410,98,88,81,11727,2146964480,2147516699,2147303524,2147528082,2147090706,2146920557,2147726930,2147117869,195,-1,8,55958
1361842256,5808,978.2399902343750000,250.4104003906250000,556.1279907226562000,5.7769451141357420,36.1310310363769500,79,411,98,79,80,11719,2146963474,2147517412,2147299538,2147525147,2147089307,2146924370,2147728822,2147118016,493,0,8,31074
1361845856,5803,990.5800170898438000,254.6582031250000000,558.0900268554688000,5.7152500152587890,35.9605789184570300,78,411,101,80,81,11721,2146965458,2147518272,2147300288,2147528950,2147088786,2146920036,2147729106,2147120064,3141,-1,8,190
1361849456,5805,997.4899902343750000,254.0626068115234400,558.5388793945312000,5.7011318206787110,35.9972381591796900,78,413,99,79,81,11721,2146963949,2147518784,2147300470,2147523044,2147087588,2146924315,2147732571,2147118546,3314,-1,8,6279
1361853056,5807,993.3300170898438000,258.3196105957031000,561.4868774414062000,5.6083579063415530,35.8480682373046900,78,411,98,79,80,11716,2146965760,2147516224,2147298660,2147522450,2147090395,2146921554,2147729042,2147118372,3033,-1,9,57040
1361856656,5804,1004.2199707031250000,258.4913024902344000,561.3685302734375000,5.6120848655700680,35.8374290466308600,77,409,99,80,82,11718,2146965860,2147516992,2147300598,2147525952,2147087643,2146921956,2147732269,2147117723,2984,-1,8,57420
1361860256,5805,1001.4600219726562000,255.7624969482422000,559.7260131835938000,5.6637840270996090,35.9375190734863300,78,410,98,79,81,11715,2146964123,2147515840,2147299794,2147524059,2147085339,2146920557,2147725101,2147119424,3448,-1,8,19924
1361863856,5803,1000.0499877929688000,255.9552001953125000,560.3154296875000000,5.6452350616455080,35.9389991760253900,78,405,97,78,81,11713,2146960082,2147517412,2147300022,2147524452,2147088045,2146919954,2147727734,2147121216,3391,0,8,18193
1361867456,5807,1005.6300048828125000,255.5811004638672000,559.5397949218750000,5.6696410179138180,35.9432792663574200,77,406,99,79,81,11711,2146967835,2147520109,2147297956,2147525632,2147089042,2146919424,2147729042,2147121024,79,0,8,39950
1361871056,5805,1010.6199951171875000,254.2247924804687500,557.8798217773438000,5.7218627929687500,35.9780807495117200,77,403,96,79,81,11710,2146962221,2147516745,2147297298,2147524068,2147088868,2146920813,2147736201,2147118619,3413,0,8,48847
1361874656,5802,1007.5800170898438000,249.9922943115234400,554.6489257812500000,5.8234348297119140,36.1249313354492200,77,405,99,79,80,11705,2146961216,2147515638,2147296941,2147524269,2147087744,2146921106,2147727725,2147119149,3456,-1,8,42065
1361878256,5807,1007.6199951171875000,251.6152038574218800,556.6146850585938000,5.7616419792175290,36.0812911987304700,78,401,98,77,80,11707,2146958838,2147517348,2147295817,2147520374,2147087616,2146924918,2147726454,2147119872,277,-1,8,16421
1361881856,5806,1008.8499755859375000,251.4264984130859400,557.5333251953125000,5.7327589988708500,36.1071014404296900,79,402,98,79,80,11710,2146962358,2147517577,2147299446,2147526921,2147088886,2146922770,2147729746,2147118390,3563,-1,8,47509
1361885456,5806,1007.4099731445312000,250.5216064453125000,554.9550781250000000,5.8138141632080080,36.1044502258300800,76,401,99,80,81,11711,2146964818,2147517549,2147300918,2147523072,2147086738,2146924178,2147727040,2147120475,3300,-1,8,19
1361889056,5806,1009.2800292968750000,250.3399047851562500,554.7208862304688000,5.8211708068847660,36.1088104248046900,77,400,98,79,81,11708,2146962989,2147517339,2147297243,2147524772,2147088566,2146929874,2147723721,2147118966,3093,0,8,25112
1361892656,5804,1007.8900146484375000,253.9851074218750000,558.7274169921875000,5.6951999664306640,36.0043487548828100,77,400,98,79,81,11705,2146963035,2147517750,2147300909,2147523675,2147089453,2146921261,2147724169,2147119643,3438,-1,8,52517
1361896256,5804,1002.6699829101562000,251.9143981933593800,558.1602783203125000,5.7130389213562010,36.0949401855468750,77,404,98,80,81,11700,2146960896,2147515392,2147302153,2147526491,2147087186,2146923364,2147727899,2147121069,635,-1,8,27324
1361899856,5806,1013.3300170898438000,252.9732971191406200,559.0540771484375000,5.6849207878112790,36.0597190856933600,77,398,99,79,81,11704,2146964361,2147515958,2147300397,2147522971,2147089499,2146921846,2147728054,2147121234,3506,-1,8,13163
1361903456,5805,1013.7700195312500000,250.7808074951172000,554.7186279296875000,5.8212471008300780,36.0877990722656250,77,401,99,80,81,11699,2146961627,2147517613,2147301037,2147521856,2147086884,2146921270,2147728694,2147120877,408,0,8,20493
1361907056,5806,1008.7600097656250000,253.4084014892578000,558.1364135742188000,5.7137928009033200,36.0217208862304700,77,405,99,80,80,11702,2146961974,2147518592,2147298633,2147525522,2147087698,2146920082,2147729883,2147122642,569,-1,8,55677
1361910656,5805,1012.6099853515625000,253.6748962402343800,558.8137817382812000,5.6924819946289060,36.0211906433105500,76,401,98,80,80,11700,2146961709,2147517476,2147300809,2147523611,2147086994,2146916626,2147728128,2147118848,3266,-1,8,10960
1361914256,5804,1010.6400146484375000,252.4533996582031200,558.8375854492188000,5.6917338371276855,36.0808296203613300,79,407,99,80,82,11701,2146963254,2147515840,2147301430,2147526884,2147087817,2146914861,2147726317,2147119369,3502,0,8,38063
1361917856,5808,1009.7600097656250000,254.2640075683593800,559.5263061523438000,5.6700649261474610,36.0059890747070300,78,429,98,79,80,11701,2146960804,2147516827,2147300068,2147525458,2147089051,2146917641,2147727762,2147119844,334,-1,8,15435
1361921456,5804,1007.5900268554688000,256.3764953613281000,560.7822875976562000,5.6305408477783200,35.9271507263183600,79,404,98,78,81,11693,2146963803,2147516553,2147299282,2147525741,2147084370,2146916534,2147731693,2147120566,3150,-1,8,39410
1361925056,5804,1014.8300170898438000,255.5014953613281200,559.0745849609375000,5.6842780113220215,35.9385414123535160,78,404,98,79,81,11701,2146962130,2147522733,2147301248,2147525056,2147086528,2146920740,2147734537,2147115785,2726,-1,8,37121
1361928656,5805,1013.4600219726562000,253.9476928710937500,558.9003906250000000,5.6897578239440920,36.0099792480468750,77,403,99,79,81,11695,2146963776,2147518573,2147302509,2147526016,2147087149,2146920356,2147729024,2147120411,3020,-1,8,24890
1361932256,5809,1007.6900024414062000,253.9284057617187500,559.1779174804688000,5.6810278892517090,36.0157203674316400,77,415,98,80,81,11697,2146966619,2147519616,2147301632,2147526555,2147086528,2146917558,2147730313,2147119707,205,-1,8,28196
1361935856,5806,1012.5100097656250000,255.4714965820312500,559.8358764648438000,5.6603240966796875,35.9534988403320300,77,403,98,79,81,11694,2146960274,2147519734,2147300662,2147523867,2147087542,2146918893,2147729051,2147120914,3493,-1,8,21387
1361939456,5806,1018.1699829101562000,253.7118072509765600,558.0297241210938000,5.7171459197998050,36.0054512023925800,77,403,99,79,81,11694,2146962843,2147520822,2147302473,2147523456,2147086372,2146915684,2147727698,2147119771,3398,-1,9,50085
1361943056,5808,1020.2899780273438000,253.4595947265625000,557.6441040039062000,5.7292752265930180,36.0103416442871100,78,401,98,79,80,11687,2146964534,2147519360,2147301220,2147522605,2147087707,2146919414,2147734592,2147120219,2862,-1,8,11362
1361946656,5803,1015.8800048828125000,250.9234008789062500,557.7116699218750000,5.7271480560302730,36.1351890563964840,78,403,99,80,81,11692,2146961371,2147519003,2147302290,2147526646,2147085586,2146920502,2147727579,2147121673,3468,-1,8,49341
1361950256,5805,1015.3400268554688000,251.3365020751953000,558.4951171875000000,5.7025070190429690,36.1294784545898440,78,401,99,80,80,11689,2146958573,2147519350,2147299227,2147523437,2147085458,2146916626,2147729353,2147123638,3365,-1,8,44890
1361953856,5806,1017.9000244140625000,253.1723022460937500,558.4105834960938000,5.7051639556884770,36.0387115478515600,78,401,98,79,80,11689,2146960502,2147519030,2147301924,2147524525,2147087506,2146918454,2147727186,2147118692,3426,0,8,19533
1361957456,5808,1014.0499877929688000,256.6211853027344000,560.8778076171875000,5.6275329589843750,35.9177589416503900,77,402,97,79,81,11684,2146962212,2147519158,2147301028,2147526372,2147086537,2146918957,2147728246,2147119753,223,0,8,42205
1361961056,5806,1012.6400146484375000,257.1372985839844000,561.7078247070312000,5.6014060974121090,35.9080390930175800,77,403,97,79,80,11683,2146961901,2147517220,2147300288,2147526838,2147087616,2146917440,2147729773,2147116370,3347,0,8,3836
1361964656,5804,1010.4899902343750000,256.1279907226562500,563.0562744140625000,5.5589451789855960,35.9807395935058600,79,403,100,77,81,11682,2146964461,2147515300,2147300032,2147527296,2147086436,2146925174,2147731721,2147118710,3424,-1,9,23151
1361968256,5804,1008.7700195312500000,255.7407073974609400,563.4993286132812000,5.5449919700622560,36.0075798034668000,79,415,97,80,80,11681,2146965412,2147516763,2147300891,2147525348,2147087442,2146919305,2147731108,2147119040,3566,-1,8,36126
1361971856,5808,1008.7700195312500000,257.7759094238281000,563.5629882812500000,5.5429859161376950,35.9120101928710940,76,404,99,79,80,11679,2146962678,2147520429,2147303524,2147527744,2147089737,2146921627,2147732580,2147118244,93,0,8,47823
1361975456,5804,1016.0999755859375000,260.7409057617187500,564.1375732421875000,5.5248851776123050,35.7822799682617200,77,406,98,79,81,11678,2146964260,2147517796,2147299218,2147527067,2147088969,2146914925,2147728896,2147118729,3104,0,8,55252
1361976355,5807,1014.6199951171875000,259.9937133789062500,563.5521850585938000,5.5433239936828610,35.8063697814941400,78,402,99,79,80,11681,2146962477,2147519853,2147298861,2147526765,2147088027,2146919835,2147734198,2147119881,134,0,8,30679
